Inquirer Daily News

Weather

Get conditions and forecasts for any City, State, ZIP code or Country:  
Northeast Philadelphia, PA
on Saturday, December 1, 2012

Saturday
Previous Day Next Day
Daily Summary
 ActualAverage (KTTN)Record (KTTN)
Temperature
Mean Temperature °F 40°F  
Max Temperature 48°F 48°F 71°F (2006)
Min Temperature 37°F 33°F 11°F (1936)
Degree Days
Heating Degree Days 22 25  
Month to date heating degree days 25  
Since 1 July heating degree days 1001  
Cooling Degree Days 0 0  
Month to date cooling degree days 0  
Year to date cooling degree days 965  
Moisture
Dew Point 37°F   
Average Humidity 83    
Maximum Humidity 96    
Minimum Humidity 71    
Precipitation
Precipitation 0.00 in 0.15 in 1.56 in (2010)
Month to date precipitation 0.15  
Year to date precipitation 42.89  
Wind
Wind Speed 9 mph   
Max Wind Speed 12 mph   
Max Gust Speed mph   
Visibility 8 miles   
Events Fog   

Key: T is trace of precipitation, MM is missing value
Source: NWS Daily Summary
Time(EST)TemperatureDew PointHumidity Pressure Visibility Wind DirectionWind SpeedGust SpeedPrecipitationEvents Conditions
12:54 AM 39.9°F 36.0°F 86% 30.42 in 10.0 miles ENE 10.4 mph - N/A   Partly Cloudy
1:54 AM 39.9°F 35.1°F 83% 30.43 in 10.0 miles ENE 8.1 mph - N/A   Overcast
2:54 AM 39.0°F 34.0°F 82% 30.43 in 10.0 miles NE 10.4 mph - N/A   Overcast
3:09 AM 39.2°F 33.8°F 81% 30.42 in 10.0 miles ENE 8.1 mph - N/A   Overcast
3:52 AM 37.4°F 33.8°F 87% 30.42 in 10.0 miles NE 8.1 mph - N/A   Mostly Cloudy
3:54 AM 37.9°F 33.1°F 83% 30.42 in 10.0 miles NE 8.1 mph - N/A   Mostly Cloudy
4:54 AM 37.4°F 33.8°F 87% 30.43 in 10.0 miles NNE 8.1 mph - N/A   Overcast
5:54 AM 39.9°F 35.1°F 83% 30.45 in 10.0 miles NE 9.2 mph - N/A   Overcast
6:54 AM 39.2°F 35.6°F 87% 30.45 in 10.0 miles ENE 6.9 mph - N/A   Overcast
7:54 AM 39.9°F 35.1°F 83% 30.47 in 10.0 miles NE 9.2 mph - N/A   Overcast
8:54 AM 41.0°F 35.1°F 79% 30.49 in 10.0 miles NE 11.5 mph - N/A   Overcast
9:54 AM 42.8°F 35.6°F 76% 30.50 in 10.0 miles ENE 11.5 mph - N/A   Overcast
10:54 AM 42.8°F 37.4°F 81% 30.49 in 10.0 miles ENE 10.4 mph - N/A   Overcast
11:54 AM 44.1°F 37.0°F 76% 30.46 in 10.0 miles ENE 8.1 mph - N/A   Overcast
12:54 PM 46.4°F 37.4°F 71% 30.43 in 10.0 miles ENE 8.1 mph - N/A   Overcast
1:54 PM 46.9°F 39.9°F 77% 30.42 in 10.0 miles NE 10.4 mph - N/A   Overcast
2:31 PM 48.2°F 39.2°F 71% 30.42 in 10.0 miles NE 9.2 mph - N/A   Overcast
2:54 PM 46.9°F 39.0°F 74% 30.43 in 10.0 miles NE 11.5 mph - N/A   Overcast
3:54 PM 46.0°F 39.0°F 76% 30.43 in 10.0 miles ENE 9.2 mph - N/A   Overcast
4:29 PM 44.6°F 37.4°F 76% 30.44 in 10.0 miles NE 11.5 mph - N/A   Overcast
4:54 PM 45.0°F 37.9°F 76% 30.44 in 10.0 miles NE 9.2 mph - N/A   Overcast
5:54 PM 44.1°F 37.9°F 79% 30.46 in 9.0 miles NE 11.5 mph - N/A   Overcast
6:54 PM 42.1°F 37.0°F 82% 30.48 in 9.0 miles NNE 8.1 mph - N/A   Overcast
7:54 PM 41.0°F 37.9°F 89% 30.47 in 6.0 miles NE 8.1 mph - N/A   Overcast
8:15 PM 41.0°F 37.4°F 87% 30.46 in 6.0 miles ENE 5.8 mph - N/A   Overcast
8:54 PM 41.0°F 39.0°F 93% 30.45 in 4.0 miles ENE 4.6 mph - N/A   Overcast
9:12 PM 41.0°F 39.2°F 93% 30.45 in 2.5 miles East 4.6 mph - N/A   Overcast
9:54 PM 41.0°F 39.9°F 96% 30.45 in 0.8 miles NNE 4.6 mph - N/A   Overcast
10:54 PM 41.0°F 39.9°F 96% 30.45 in 0.5 miles NNE 5.8 mph - N/A Fog Fog
11:54 PM 41.0°F 39.9°F 96% 30.44 in 0.5 miles NE 4.6 mph - N/A Fog Fog
Astronomy
Sunrise:07:03 AM (EST) Moon Rise:07:22 PM (EST)12/1
Sunset:04:35 PM (EST) Moon Set:09:14 AM (EST)12/1
Moon Phase
Dec. 01 Dec. 06 Dec. 13 Dec. 20 Dec. 28

Copyright © 2014 The Weather Underground, Inc.